AirNav   Pilot Hours Calculator
 
 574 users online  

3NJ1 Pemberton Airport
Pemberton, New Jersey, USA

GOING TO PEMBERTON?


FAA INFORMATION EFFECTIVE 05 DECEMBER 2019

Location

FAA Identifier: 3NJ1
Lat/Long: 39-58-55.8400N 074-41-41.9100W
39-58.930667N 074-41.698500W
39.9821778,-74.6949750
(estimated)
Elevation: 65 ft. / 20 m (estimated)
Variation: 12W (1985)
From city: 1 mile NW of PEMBERTON, NJ
Time zone: UTC -5 (UTC -4 during Daylight Saving Time)
Zip code: 08068

Airport Operations

Airport use: Private use. Permission required prior to landing
Activation date: 05/1951
Control tower: no
ARTCC: NEW YORK CENTER
FSS: MILLVILLE FLIGHT SERVICE STATION
Attendance: DAYLIGHT HOURS
Wind indicator: yes
Segmented circle: no

Airport Communications

WX ASOS at VAY (7 nm W): 119.325 (609-267-1176)
WX ASOS at PNE (16 nm W): PHONE 215-677-0146
WX ASOS at TTN (18 nm N): 126.775 (609-538-8690)
WX AWOS-3PT at MJX (19 nm E): 119.875 (732-797-2542)
WX AWOS-AV at N81 (19 nm S): 122.7

Nearby radio navigation aids

VOR radial/distance  VOR name  Freq  Var
GXUr262/4.8MC GUIRE VORTAC110.6012W
CYNr319/15.6COYLE VORTAC113.4010W
RBVr225/16.1ROBBINSVILLE VORTAC113.8010W
ARDr159/19.0YARDLEY VOR/DME108.2010W
VCNr035/29.5CEDAR LAKE VOR/DME115.2010W
COLr242/31.5COLTS NECK VOR/DME115.4011W
ACYr000/32.0ATLANTIC CITY VORTAC108.6010W
OODr063/34.9WOODSTOWN VORTAC112.8010W
SBJr187/36.1SOLBERG VOR/DME112.9010W

 
NDB name  Hdg/Dist  Freq  Var  ID
LAKEHURST268/16.939611WNEL -. . .-..
AMBLER120/28.427512WING .. -. --.
RAINBOW042/39.536311WRNB .-. -. -...

Airport Services

Parking: tiedowns
Airframe service: MAJOR
Powerplant service: MAJOR

Runway Information

Runway 4/22

Dimensions: 2568 x 100 ft. / 783 x 30 m
Surface: turf, in fair condition
Runway edge markings: YELLOW BUCKETS MARK RY ENDS AND EDGES.
RUNWAY 4  RUNWAY 22
Traffic pattern: leftleft
Obstructions: 60 ft. tree, 5 ft. from runway, 90 ft. right of centerline68 ft. tree, 140 ft. from runway, 102 ft. right of centerline, 2:1 slope to clear

Airport Ownership and Management from official FAA records

Ownership: Privately-owned
Owner: METRO AIRWAYS INC
227 PENN-LAWR
PENNINGTON, NJ 08524
Phone 609-575-7284
Manager: FRANK VITELLARO
227 PENN-LAWR
PENNINGTON, NJ 08868
Phone 609-575-7284

Airport Operational Statistics

Aircraft based on the field: 24
Single engine airplanes: 12
Ultralights: 12
    
Aircraft operations: avg 33/day *
92% local general aviation
8% transient general aviation
* for 12-month period ending 02 June 1998

Additional Remarks

TREES EACH END RWY 04/22.
ULTRALGT ACTIVITY ON AND INVOF ARPT.
FOR CD CTC MC GUIRE APCH AT 609-754-2767.

Instrument Procedures

There are no published instrument procedures at 3NJ1.

Some nearby airports with instrument procedures:

KWRI - McGuire Field (Joint Base Mc Guire Dix Lakehurst) Airport (5 nm NE)
N14 - Flying W Airport (6 nm SW)
KVAY - South Jersey Regional Airport (7 nm W)
N87 - Trenton-Robbinsville Airport (15 nm N)
KPNE - Northeast Philadelphia Airport (16 nm NW)
KNEL - Lakehurst Maxfield Field Airport (16 nm E)
19N - Camden County Airport (17 nm SW)
KTTN - Trenton Mercer Airport (18 nm N)
KMJX - Ocean County Airport (19 nm E)
N81 - Hammonton Municipal Airport (19 nm S)
 
Loc | Ops | Rwys | IFR | FBO | Links
Com | Nav | Svcs | Stats | Notes
Area around 3NJ1 (Pemberton Airport)
 
Road maps at: MapQuest Bing Google
 
Aerial photo
WARNING: Photo may not be current or correct
Aerial photo of 3NJ1 (Pemberton Airport)
Photo by Scott Krzysik
Photo taken 26-May-2010

Do you have a better or more recent aerial photo of Pemberton Airport that you would like to share? If so, please send us your photo.

 
Sectional chart

 
Airport distance calculator
Flying to Pemberton Airport? Find the distance to fly.

From to 3NJ1

Sunrise and sunset
Times for 06-Dec-2019
 Local
(UTC-5)
 Zulu
(UTC)
Morning civil twilight06:3711:37
Sunrise07:0712:07
Sunset16:3221:32
Evening civil twilight17:0322:03

Current date and time
Zulu (UTC)  06-Dec-2019 08:52:26
Local (UTC-5)  06-Dec-2019 03:52:26
 
METAR
KWRI 
6nm E 
060756Z AUTO 24003KT 10SM CLR 00/M05 A3015 RMK AO2 SLP211 T10051047
KVAY 
7nm SW 
ASOS 119.325 609-267-1176
060754Z AUTO 21003KT 10SM CLR 01/M05 A3017 RMK AO2 SLP217 T00061050
KPNE 
16nm W 
060754Z AUTO 23003KT 10SM SCT110 03/M05 A3017 RMK AO2 SLP218 T00281050
KNEL 
17nm E 
052100Z AUTO 29015G20KT 10SM OVC060 06/M06 A2991 RMK AO2 PK WND 29027/2029 SLP126 T00561056 51023 $
KMJX 
19nm E 
AWOS-3 119.875 732-244-4450
060756Z AUTO 00000KT 10SM CLR M03/M03 A3017 RMK AO2 SLP221 T10331033 FZRANO
KTTN 
19nm N 
ASOS 133.70 609-538-8690
060753Z AUTO 00000KT 10SM BKN120 M01/M05 A3014 RMK AO2 SLP204 T10061050
TAF
KWRI 
6nm E 
060200Z 0602/0708 28010G15KT 9999 BKN050 QNH3005INS BECMG 0607/0608 26007KT 9999 SCT120 BKN220 QNH3011INS BECMG 0613/0614 23010KT 9999 BKN100 QNH3000INS BECMG 0618/0619 24012G20KT 9999 BKN070 QNH2998INS BECMG 0623/0624 27009KT 9999 BKN050 QNH3001INS BECMG 0702/0703 32010KT 9999 SCT050 QNH3010INS TX09/0618Z TNM01/0610Z
KPNE 
16nm W 
060527Z 0606/0706 30009KT P6SM SCT050 FM061000 22008KT P6SM BKN150 FM061700 22010G18KT P6SM OVC060 FM062200 27008KT P6SM BKN060 FM070200 31010KT P6SM SCT060
KTTN 
19nm N 
060527Z 0606/0706 29005KT P6SM SCT050 FM060900 VRB02KT P6SM BKN120 FM061400 22008KT P6SM BKN060 FM061800 25011KT P6SM BKN050 FM070000 30010KT P6SM SCT050
NOTAMs
Click for the latest NOTAMs
NOTAMs are issued by the DoD/FAA and will open in a separate window not controlled by AirNav.

 

 
 

Would you like to see your business listed on this page?

 If your business provides an interesting product or service to pilots, flight crews, aircraft, or users of the Pemberton Airport, you should consider listing it here.  To start the listing process, click on the button below
 
Add a business
 

Other Pages about Pemberton Airport

Update a link
 
Copyright © AirNav, LLC. All rights reserved. Privacy Policy  Contact